JBU2344 KDCA-KBOS

Flight info

Callsign JBU2344
Flight time N/A
Altitude 39000
Route SOOKI6 SWANN BROSS Q419 JFK ROBUC3
Aircraft A320/M-SDE3FGHIRWY/LB1

Departure

Time 2026-05-03 21:12
Airport Ronald Reagan Washington National Airport (KDCA)

Arrival

Time N/A
Airport Boston Logan International Airport (KBOS)
Time Latitude Longitude Altitude Speed Heading
2026-05-03 20:24 38.85428 -77.04279 27 ft 0 kts 160°
2026-05-03 21:03 38.85430 -77.04280 28 ft 0 kts 176°
2026-05-03 21:03 38.85443 -77.04275 27 ft 2 kts 191°
2026-05-03 21:03 38.85458 -77.04273 27 ft 2 kts 188°
2026-05-03 21:03 38.85473 -77.04270 27 ft 2 kts 188°
2026-05-03 21:04 38.85484 -77.04268 27 ft 0 kts 188°
2026-05-03 21:04 38.85489 -77.04267 27 ft 0 kts 148°
2026-05-03 21:04 38.85492 -77.04272 27 ft 0 kts 100°
2026-05-03 21:04 38.85492 -77.04276 27 ft 0 kts 65°
2026-05-03 21:05 38.85490 -77.04283 27 ft 0 kts 72°
2026-05-03 21:06 38.85490 -77.04282 27 ft 0 kts 72°
2026-05-03 21:07 38.85515 -77.04184 26 ft 16 kts 72°
2026-05-03 21:07 38.85553 -77.04031 24 ft 18 kts 74°
2026-05-03 21:07 38.85486 -77.03944 24 ft 15 kts 174°
2026-05-03 21:07 38.85375 -77.03934 24 ft 16 kts 177°
2026-05-03 21:08 38.85249 -77.03926 24 ft 18 kts 174°
2026-05-03 21:08 38.85112 -77.03912 24 ft 20 kts 177°
2026-05-03 21:08 38.84960 -77.03900 23 ft 22 kts 172°
2026-05-03 21:08 38.84795 -77.03883 23 ft 24 kts 176°
2026-05-03 21:09 38.84611 -77.03870 21 ft 27 kts 176°
2026-05-03 21:09 38.84415 -77.03853 20 ft 28 kts 176°
2026-05-03 21:09 38.84267 -77.03831 19 ft 14 kts 171°
2026-05-03 21:09 38.84220 -77.03809 18 ft 0 kts 145°
2026-05-03 21:11 38.84175 -77.03687 18 ft 16 kts 57°
2026-05-03 21:11 38.84283 -77.03683 18 ft 31 kts 350°
2026-05-03 21:12 38.84747 -77.03743 21 ft 113 kts 354°
2026-05-03 21:12 38.87340 -77.03851 1525 ft 171 kts 350°
2026-05-03 21:13 38.88444 -77.04339 2393 ft 176 kts 323°
2026-05-03 21:13 38.89339 -77.05502 2992 ft 198 kts 314°
2026-05-03 21:13 38.90326 -77.06844 3698 ft 218 kts 303°
2026-05-03 21:13 38.91007 -77.08617 4673 ft 227 kts 296°
2026-05-03 21:14 38.91752 -77.10381 5630 ft 234 kts 309°
2026-05-03 21:14 38.92997 -77.11736 6611 ft 240 kts 324°
2026-05-03 21:14 38.94369 -77.12923 7697 ft 240 kts 325°
2026-05-03 21:14 38.95586 -77.13856 8619 ft 241 kts 330°
2026-05-03 21:15 38.97251 -77.14698 9757 ft 246 kts 347°
2026-05-03 21:15 38.98981 -77.14636 10773 ft 256 kts
2026-05-03 21:15 39.00635 -77.13642 11569 ft 277 kts 31°
2026-05-03 21:15 39.01923 -77.12336 12040 ft 293 kts 32°
2026-05-03 21:16 39.02669 -77.11565 12370 ft 298 kts 33°
2026-05-03 21:16 39.04058 -77.09506 13150 ft 318 kts 57°
2026-05-03 21:16 39.04725 -77.06719 13700 ft 341 kts 76°
2026-05-03 21:16 39.05109 -77.03622 14150 ft 359 kts 77°
2026-05-03 21:17 39.05489 -77.00420 14812 ft 367 kts 77°
2026-05-03 21:17 39.05750 -76.98256 15301 ft 370 kts 77°
2026-05-03 21:17 39.06288 -76.93861 16220 ft 378 kts 77°
2026-05-03 21:17 39.06676 -76.90732 16846 ft 383 kts 77°
2026-05-03 21:19 39.06845 -76.89380 17123 ft 385 kts 77°
2026-05-03 21:19 39.07277 -76.85927 17785 ft 390 kts 77°
2026-05-03 21:19 39.07712 -76.82467 18430 ft 395 kts 77°
2026-05-03 21:19 39.08152 -76.78970 19086 ft 399 kts 77°
2026-05-03 21:20 39.08595 -76.75444 19730 ft 403 kts 77°
2026-05-03 21:20 39.09053 -76.71909 20355 ft 407 kts 76°
2026-05-03 21:20 39.09566 -76.68314 20973 ft 411 kts 75°
2026-05-03 21:20 39.10089 -76.64670 21562 ft 415 kts 75°
2026-05-03 21:21 39.10525 -76.61600 22072 ft 418 kts 75°
2026-05-03 21:21 39.10605 -76.61037 22166 ft 419 kts 75°
2026-05-03 21:21 39.11088 -76.57620 22690 ft 423 kts 75°
2026-05-03 21:21 39.11614 -76.53877 23268 ft 427 kts 75°
2026-05-03 21:22 39.12092 -76.50096 23830 ft 432 kts 77°
2026-05-03 21:22 39.12521 -76.46288 24357 ft 435 kts 78°
2026-05-03 21:22 39.12963 -76.42388 24872 ft 439 kts 77°
2026-05-03 21:22 39.13401 -76.38519 25341 ft 444 kts 77°
2026-05-03 21:23 39.13844 -76.34586 25803 ft 448 kts 78°
2026-05-03 21:23 39.14294 -76.30581 26227 ft 452 kts 78°
2026-05-03 21:23 39.14745 -76.26555 26667 ft 455 kts 78°
2026-05-03 21:23 39.15197 -76.22502 27076 ft 459 kts 78°
2026-05-03 21:24 39.15659 -76.18462 27500 ft 462 kts 78°
2026-05-03 21:24 39.16134 -76.14357 27927 ft 465 kts 78°
2026-05-03 21:24 39.16610 -76.10216 28325 ft 468 kts 78°
2026-05-03 21:24 39.17085 -76.06075 28702 ft 472 kts 78°
2026-05-03 21:25 39.17564 -76.01884 29061 ft 475 kts 78°
2026-05-03 21:25 39.18049 -75.97610 29442 ft 478 kts 78°
2026-05-03 21:25 39.18549 -75.93373 29850 ft 479 kts 75°
2026-05-03 21:25 39.19474 -75.89274 30213 ft 473 kts 62°
2026-05-03 21:26 39.21048 -75.85599 30507 ft 466 kts 47°
2026-05-03 21:26 39.23100 -75.82443 30781 ft 463 kts 40°
2026-05-03 21:26 39.25285 -75.79355 31024 ft 466 kts 40°
2026-05-03 21:26 39.27482 -75.76244 31244 ft 469 kts 40°
2026-05-03 21:27 39.29683 -75.73119 31503 ft 470 kts 40°
2026-05-03 21:27 39.31866 -75.70015 31707 ft 473 kts 41°
2026-05-03 21:27 39.34089 -75.66851 31931 ft 475 kts 41°
2026-05-03 21:27 39.36322 -75.63668 32129 ft 477 kts 41°
2026-05-03 21:28 39.38541 -75.60502 32314 ft 479 kts 41°
2026-05-03 21:28 39.40772 -75.57318 32486 ft 482 kts 41°
2026-05-03 21:28 39.43034 -75.54085 32683 ft 484 kts 41°
2026-05-03 21:28 39.45331 -75.50800 32891 ft 486 kts 41°
2026-05-03 21:29 39.47604 -75.47545 33079 ft 488 kts 41°
2026-05-03 21:29 39.49884 -75.44277 33257 ft 490 kts 41°
2026-05-03 21:29 39.52167 -75.41000 33435 ft 492 kts 41°
2026-05-03 21:29 39.54470 -75.37693 33602 ft 495 kts 41°
2026-05-03 21:30 39.56746 -75.34419 33859 ft 495 kts 42°
2026-05-03 21:30 39.59067 -75.31074 34134 ft 495 kts 42°
2026-05-03 21:30 39.61363 -75.27765 34397 ft 494 kts 43°
2026-05-03 21:30 39.63648 -75.24468 34619 ft 495 kts 42°
2026-05-03 21:31 39.65963 -75.21124 34825 ft 497 kts 43°
2026-05-03 21:31 39.68261 -75.17803 35030 ft 497 kts 43°
2026-05-03 21:31 39.70578 -75.14449 35298 ft 497 kts 43°
2026-05-03 21:31 39.72895 -75.11091 35526 ft 497 kts 43°
2026-05-03 21:32 39.75181 -75.07775 35766 ft 497 kts 43°
2026-05-03 21:32 39.77491 -75.04421 35930 ft 499 kts 43°
2026-05-03 21:32 39.79810 -75.01051 36109 ft 500 kts 43°
2026-05-03 21:32 39.82117 -74.97694 36343 ft 500 kts 43°
2026-05-03 21:33 39.84454 -74.94290 36549 ft 500 kts 43°
2026-05-03 21:33 39.86754 -74.90935 36723 ft 502 kts 44°
2026-05-03 21:33 39.89080 -74.87540 36890 ft 503 kts 44°
2026-05-03 21:33 39.91431 -74.84104 37065 ft 504 kts 44°
2026-05-03 21:34 39.93757 -74.80701 37264 ft 504 kts 44°
2026-05-03 21:34 39.96106 -74.77260 37437 ft 504 kts 44°
2026-05-03 21:34 39.98405 -74.73886 37597 ft 505 kts 44°
2026-05-03 21:34 40.00752 -74.70441 37782 ft 505 kts 44°
2026-05-03 21:35 40.03070 -74.67033 38005 ft 505 kts 44°
2026-05-03 21:35 40.05421 -74.63573 38172 ft 507 kts 44°
2026-05-03 21:35 40.07746 -74.60150 38364 ft 507 kts 44°
2026-05-03 21:35 40.10105 -74.56670 38578 ft 507 kts 44°
2026-05-03 21:36 40.12419 -74.53254 38813 ft 506 kts 44°
2026-05-03 21:36 40.14763 -74.49789 38965 ft 506 kts 44°
2026-05-03 21:36 40.19402 -74.42920 39055 ft 505 kts 44°
2026-05-03 21:37 40.24052 -74.36018 39050 ft 504 kts 44°
2026-05-03 21:37 40.28117 -74.29974 39051 ft 505 kts 45°
2026-05-03 21:38 40.31195 -74.25389 39051 ft 506 kts 45°
2026-05-03 21:38 40.34486 -74.20480 39048 ft 505 kts 45°
2026-05-03 21:39 40.39128 -74.13541 39058 ft 506 kts 45°
2026-05-03 21:39 40.43113 -74.07571 39066 ft 507 kts 45°
2026-05-03 21:40 40.47756 -74.00600 39072 ft 507 kts 45°
2026-05-03 21:40 40.51656 -73.94733 39071 ft 507 kts 45°
2026-05-03 21:41 40.53405 -73.92100 39066 ft 507 kts 45°
2026-05-03 21:42 40.58046 -73.85096 39058 ft 506 kts 45°
2026-05-03 21:42 40.60343 -73.81622 38922 ft 502 kts 45°
2026-05-03 21:42 40.62638 -73.78149 38300 ft 503 kts 45°
2026-05-03 21:43 40.64959 -73.74672 37688 ft 503 kts 44°
2026-05-03 21:43 40.67300 -73.71272 37069 ft 506 kts 43°
2026-05-03 21:43 40.69647 -73.67865 36325 ft 511 kts 43°
2026-05-03 21:43 40.72036 -73.64381 35750 ft 510 kts 44°
2026-05-03 21:44 40.74411 -73.60906 35230 ft 508 kts 44°
2026-05-03 21:44 40.76778 -73.57434 34724 ft 505 kts 44°
2026-05-03 21:44 40.79119 -73.53996 34162 ft 504 kts 43°
2026-05-03 21:44 40.81459 -73.50558 33516 ft 505 kts 43°
2026-05-03 21:45 40.83789 -73.47131 33006 ft 504 kts 43°
2026-05-03 21:45 40.86128 -73.43684 32557 ft 500 kts 43°
2026-05-03 21:45 40.88442 -73.40270 32165 ft 495 kts 43°
2026-05-03 21:45 40.90706 -73.36924 31786 ft 490 kts 43°
2026-05-03 21:46 40.92963 -73.33585 31499 ft 483 kts 44°
2026-05-03 21:46 40.95180 -73.30302 31186 ft 477 kts 43°
2026-05-03 21:46 40.97393 -73.27022 30856 ft 472 kts 43°
2026-05-03 21:46 40.99560 -73.23808 30476 ft 467 kts 43°
2026-05-03 21:47 41.01695 -73.20638 30048 ft 462 kts 43°
2026-05-03 21:47 41.03833 -73.17461 29603 ft 457 kts 43°
2026-05-03 21:47 41.05917 -73.14360 29144 ft 452 kts 43°
2026-05-03 21:47 41.08016 -73.11234 28653 ft 447 kts 43°
2026-05-03 21:48 41.10058 -73.08189 27976 ft 442 kts 43°
2026-05-03 21:48 41.12098 -73.05144 27278 ft 437 kts 43°
2026-05-03 21:48 41.14097 -73.02157 26630 ft 430 kts 43°
2026-05-03 21:48 41.16069 -72.99206 25981 ft 423 kts 43°
2026-05-03 21:49 41.17998 -72.96318 25297 ft 418 kts 43°
2026-05-03 21:49 41.19893 -72.93475 24591 ft 413 kts 44°
2026-05-03 21:49 41.21585 -72.90361 23906 ft 414 kts 55°
2026-05-03 21:49 41.22897 -72.87007 23367 ft 406 kts 58°
2026-05-03 21:50 41.24145 -72.83734 23108 ft 392 kts 58°
2026-05-03 21:50 41.25367 -72.80533 23054 ft 386 kts 57°
2026-05-03 21:50 41.26586 -72.77348 23055 ft 387 kts 57°
2026-05-03 21:50 41.27811 -72.74149 23053 ft 389 kts 57°
2026-05-03 21:51 41.29046 -72.70924 23038 ft 390 kts 57°
2026-05-03 21:51 41.30267 -72.67722 23048 ft 390 kts 57°
2026-05-03 21:51 41.31500 -72.64487 23038 ft 389 kts 58°
2026-05-03 21:51 41.32721 -72.61277 23035 ft 390 kts 57°
2026-05-03 21:52 41.33938 -72.58076 23039 ft 390 kts 57°
2026-05-03 21:52 41.35157 -72.54865 23035 ft 389 kts 57°
2026-05-03 21:52 41.35921 -72.52850 23038 ft 390 kts 58°
2026-05-03 21:52 41.37150 -72.49605 23034 ft 390 kts 58°
2026-05-03 21:53 41.38358 -72.46414 23027 ft 390 kts 58°
2026-05-03 21:53 41.39586 -72.43165 23027 ft 391 kts 58°
2026-05-03 21:53 41.40806 -72.39934 23027 ft 391 kts 58°
2026-05-03 21:53 41.42034 -72.36678 23032 ft 392 kts 58°
2026-05-03 21:54 41.42727 -72.34837 23024 ft 391 kts 58°
2026-05-03 21:54 41.43378 -72.33109 23016 ft 391 kts 58°
2026-05-03 21:54 41.44595 -72.29875 23014 ft 391 kts 58°
2026-05-03 21:54 41.45818 -72.26620 23022 ft 391 kts 58°
2026-05-03 21:55 41.46431 -72.24986 23020 ft 391 kts 58°
2026-05-03 21:55 41.47538 -72.22037 22995 ft 392 kts 58°
2026-05-03 21:55 41.48748 -72.18789 22828 ft 391 kts 59°
2026-05-03 21:55 41.49937 -72.15537 22637 ft 389 kts 59°
2026-05-03 21:56 41.51112 -72.12321 22428 ft 388 kts 59°
2026-05-03 21:56 41.52281 -72.09117 22210 ft 386 kts 59°
2026-05-03 21:56 41.53440 -72.05939 22001 ft 385 kts 59°
2026-05-03 21:56 41.54618 -72.02709 21792 ft 383 kts 59°
2026-05-03 21:57 41.55741 -71.99535 21577 ft 384 kts 62°
2026-05-03 21:57 41.56746 -71.96218 21350 ft 384 kts 64°
2026-05-03 21:57 41.57726 -71.92939 21136 ft 382 kts 63°
2026-05-03 21:57 41.58711 -71.89654 20924 ft 380 kts 63°
2026-05-03 21:58 41.59690 -71.86382 20711 ft 379 kts 64°
2026-05-03 21:58 41.60664 -71.83100 20500 ft 378 kts 64°
2026-05-03 21:58 41.60837 -71.82516 20463 ft 377 kts 64°
2026-05-03 21:58 41.61681 -71.79655 20275 ft 376 kts 64°
2026-05-03 21:59 41.62648 -71.76378 20057 ft 374 kts 64°
2026-05-03 21:59 41.63591 -71.73178 19852 ft 373 kts 64°
2026-05-03 21:59 41.64539 -71.69959 19642 ft 372 kts 64°
2026-05-03 21:59 41.65481 -71.66757 19438 ft 370 kts 64°
2026-05-03 22:00 41.66414 -71.63580 19234 ft 369 kts 64°
2026-05-03 22:00 41.67349 -71.60391 19029 ft 365 kts 63°
2026-05-03 22:00 41.68262 -71.57272 18705 ft 358 kts 63°
2026-05-03 22:00 41.69171 -71.54160 18275 ft 354 kts 63°
2026-05-03 22:01 41.70057 -71.51128 17830 ft 352 kts 63°
2026-05-03 22:01 41.70951 -71.48068 17389 ft 349 kts 63°
2026-05-03 22:01 41.71821 -71.45085 16943 ft 347 kts 63°
2026-05-03 22:01 41.72811 -71.42155 16498 ft 340 kts 55°
2026-05-03 22:02 41.73983 -71.39436 16058 ft 337 kts 54°
2026-05-03 22:02 41.75143 -71.36732 15624 ft 334 kts 54°
2026-05-03 22:02 41.76281 -71.34068 15203 ft 331 kts 55°